TAP1904 LPMA-EDDF

Flight info

Callsign TAP1904
Flight time 1h 22m
Altitude 40000
Route DEGUN DCT RULET DCT GALPA DCT TOSDI DCT ZMR DCT NUBLO DCT RONSI DCT DELOG DCT PEXOD DCT DIDIG DCT TIRAV DCT ERJAZ DCT PIWIZ DCT TSU DCT OQQAL DCT RANUX/N0488F410 DCT VALEK DCT LIPNI UN858 LIMGO Z111 TUTOV/N0459F230 Z111 RAMOB IMCOM1A
Aircraft A359/H-SDE2E3GHIJ3J4J5LM1ORWXY/LB1D1

Departure

Time 2026-05-05 11:14
Airport Cristiano Ronaldo International Airport (LPMA)

Arrival

Time 2026-05-05 12:36
Airport Frankfurt Main Airport (EDDF)
Time Latitude Longitude Altitude Speed Heading
2026-05-05 10:46 32.69551 -16.77402 183 ft 0 kts 138°
2026-05-05 11:00 32.69558 -16.77409 183 ft 2 kts 138°
2026-05-05 11:00 32.69570 -16.77422 179 ft 2 kts 138°
2026-05-05 11:00 32.69582 -16.77434 181 ft 2 kts 128°
2026-05-05 11:01 32.69593 -16.77449 181 ft 2 kts 143°
2026-05-05 11:01 32.69607 -16.77456 180 ft 2 kts 199°
2026-05-05 11:01 32.69619 -16.77449 180 ft 0 kts 230°
2026-05-05 11:03 32.69614 -16.77456 180 ft 6 kts 225°
2026-05-05 11:03 32.69547 -16.77535 180 ft 17 kts 225°
2026-05-05 11:03 32.69458 -16.77640 177 ft 20 kts 224°
2026-05-05 11:03 32.69355 -16.77765 175 ft 18 kts 230°
2026-05-05 11:04 32.69296 -16.77860 174 ft 7 kts 250°
2026-05-05 11:04 32.69295 -16.77862 173 ft 0 kts 251°
2026-05-05 11:11 32.69295 -16.77863 173 ft 1 kts 251°
2026-05-05 11:11 32.69288 -16.77910 171 ft 10 kts 266°
2026-05-05 11:11 32.69278 -16.78017 168 ft 14 kts 248°
2026-05-05 11:11 32.69212 -16.78115 166 ft 17 kts 224°
2026-05-05 11:12 32.69119 -16.78224 166 ft 20 kts 224°
2026-05-05 11:12 32.69015 -16.78344 165 ft 22 kts 224°
2026-05-05 11:12 32.68937 -16.78396 162 ft 7 kts 199°
2026-05-05 11:12 32.68929 -16.78418 162 ft 5 kts 293°
2026-05-05 11:13 32.68950 -16.78416 162 ft 1 kts 32°
2026-05-05 11:13 32.68950 -16.78415 162 ft 0 kts 37°
2026-05-05 11:13 32.69113 -16.78234 166 ft 68 kts 45°
2026-05-05 11:13 32.69620 -16.77641 179 ft 133 kts 44°
2026-05-05 11:14 32.70358 -16.76795 630 ft 151 kts 41°
2026-05-05 11:14 32.71010 -16.75823 1337 ft 152 kts 65°
2026-05-05 11:14 32.71182 -16.74618 1899 ft 155 kts 96°
2026-05-05 11:14 32.70835 -16.73321 2166 ft 175 kts 109°
2026-05-05 11:15 32.70352 -16.71904 2500 ft 196 kts 111°
2026-05-05 11:15 32.69778 -16.70318 2810 ft 221 kts 114°
2026-05-05 11:15 32.69389 -16.68501 3193 ft 242 kts 88°
2026-05-05 11:15 32.69951 -16.66596 3921 ft 252 kts 58°
2026-05-05 11:16 32.71068 -16.64940 4612 ft 261 kts 50°
2026-05-05 11:16 32.72296 -16.63303 5277 ft 269 kts 50°
2026-05-05 11:16 32.73551 -16.61623 6025 ft 274 kts 50°
2026-05-05 11:16 32.74813 -16.59908 6838 ft 278 kts 50°
2026-05-05 11:17 32.76091 -16.58158 7674 ft 282 kts 50°
2026-05-05 11:17 32.77381 -16.56379 8527 ft 286 kts 50°
2026-05-05 11:17 32.78690 -16.54570 9365 ft 291 kts 50°
2026-05-05 11:17 32.80012 -16.52735 10325 ft 294 kts 50°
2026-05-05 11:18 32.81387 -16.50829 10992 ft 315 kts 50°
2026-05-05 11:18 32.82865 -16.48779 11521 ft 337 kts 50°
2026-05-05 11:18 32.84430 -16.46599 11971 ft 357 kts 50°
2026-05-05 11:18 32.86081 -16.44305 12596 ft 372 kts 49°
2026-05-05 11:19 32.87785 -16.41931 13307 ft 381 kts 49°
2026-05-05 11:19 32.89526 -16.39506 14073 ft 389 kts 49°
2026-05-05 11:19 32.91268 -16.37076 14726 ft 393 kts 49°
2026-05-05 11:19 32.93072 -16.34562 15395 ft 397 kts 49°
2026-05-05 11:20 32.94881 -16.32037 16073 ft 404 kts 48°
2026-05-05 11:20 32.96687 -16.29517 16834 ft 408 kts 48°
2026-05-05 11:20 32.98558 -16.26905 17672 ft 411 kts 48°
2026-05-05 11:20 33.00413 -16.24334 18234 ft 418 kts 46°
2026-05-05 11:21 33.02476 -16.21876 18781 ft 421 kts 42°
2026-05-05 11:21 33.04613 -16.19474 19392 ft 424 kts 41°
2026-05-05 11:21 33.06800 -16.17078 19991 ft 428 kts 40°
2026-05-05 11:21 33.09016 -16.14686 20602 ft 431 kts 40°
2026-05-05 11:22 33.11259 -16.12285 21238 ft 435 kts 40°
2026-05-05 11:22 33.13524 -16.09865 21850 ft 439 kts 40°
2026-05-05 11:22 33.15813 -16.07413 22457 ft 443 kts 40°
2026-05-05 11:22 33.18114 -16.04942 23083 ft 447 kts 40°
2026-05-05 11:23 33.20436 -16.02443 23755 ft 451 kts 40°
2026-05-05 11:23 33.22785 -15.99910 24265 ft 458 kts 40°
2026-05-05 11:23 33.24355 -15.98215 24662 ft 461 kts 40°
2026-05-05 11:23 33.26735 -15.95643 25258 ft 463 kts 40°
2026-05-05 11:24 33.29135 -15.93048 25821 ft 466 kts 41°
2026-05-05 11:24 33.31547 -15.90439 26324 ft 470 kts 41°
2026-05-05 11:24 33.33984 -15.87800 26834 ft 473 kts 41°
2026-05-05 11:24 33.36431 -15.85147 27334 ft 477 kts 41°
2026-05-05 11:25 33.38902 -15.82466 27849 ft 481 kts 41°
2026-05-05 11:25 33.41400 -15.79755 28381 ft 484 kts 41°
2026-05-05 11:25 33.43873 -15.77068 28896 ft 488 kts 41°
2026-05-05 11:25 33.46396 -15.74326 29375 ft 491 kts 41°
2026-05-05 11:26 33.48939 -15.71559 29839 ft 495 kts 41°
2026-05-05 11:26 33.51500 -15.68770 30266 ft 498 kts 41°
2026-05-05 11:26 33.54073 -15.65965 30646 ft 501 kts 41°
2026-05-05 11:26 33.56657 -15.63146 31014 ft 504 kts 41°
2026-05-05 11:27 33.59253 -15.60312 31405 ft 506 kts 41°
2026-05-05 11:27 33.61860 -15.57463 31769 ft 508 kts 41°
2026-05-05 11:27 33.64472 -15.54606 32113 ft 510 kts 41°
2026-05-05 11:27 33.67104 -15.51726 32445 ft 512 kts 41°
2026-05-05 11:28 33.69742 -15.48836 32814 ft 513 kts 41°
2026-05-05 11:28 33.72370 -15.45954 33331 ft 511 kts 41°
2026-05-05 11:28 33.74985 -15.43083 33825 ft 508 kts 40°
2026-05-05 11:28 33.77558 -15.40256 34286 ft 507 kts 40°
2026-05-05 11:29 33.80158 -15.37398 34753 ft 506 kts 40°
2026-05-05 11:29 33.82755 -15.34541 35229 ft 505 kts 40°
2026-05-05 11:29 33.85349 -15.31685 35681 ft 505 kts 40°
2026-05-05 11:29 33.87931 -15.28840 36100 ft 504 kts 40°
2026-05-05 11:30 33.90517 -15.25988 36414 ft 504 kts 41°
2026-05-05 11:30 33.93102 -15.23134 36719 ft 504 kts 41°
2026-05-05 11:30 33.99274 -15.16307 37453 ft 503 kts 41°
2026-05-05 11:30 34.09570 -15.04892 38593 ft 502 kts 41°
2026-05-05 11:31 34.19835 -14.93473 39393 ft 503 kts 41°
2026-05-05 11:31 34.30147 -14.81961 40047 ft 505 kts 41°
2026-05-05 11:31 34.40462 -14.70404 40179 ft 506 kts 41°
2026-05-05 11:32 34.61144 -14.47110 40182 ft 507 kts 41°
2026-05-05 11:32 34.81643 -14.23857 40182 ft 507 kts 41°
2026-05-05 11:33 35.02254 -14.00307 40187 ft 508 kts 41°
2026-05-05 11:33 35.22833 -13.76624 40176 ft 509 kts 41°
2026-05-05 11:34 35.43396 -13.52784 40187 ft 509 kts 41°
2026-05-05 11:34 35.63872 -13.28871 40191 ft 507 kts 41°
2026-05-05 11:35 35.84286 -13.04851 40190 ft 508 kts 41°
2026-05-05 11:35 36.04682 -12.80672 40190 ft 508 kts 42°
2026-05-05 11:36 36.25045 -12.56348 40193 ft 509 kts 42°
2026-05-05 11:36 36.45256 -12.32021 40190 ft 510 kts 42°
2026-05-05 11:37 36.65583 -12.07364 40187 ft 510 kts 42°
2026-05-05 11:37 36.85878 -11.82555 40185 ft 511 kts 42°
2026-05-05 11:38 37.06146 -11.57583 40180 ft 512 kts 42°
2026-05-05 11:38 37.26413 -11.32414 40179 ft 513 kts 42°
2026-05-05 11:39 37.46690 -11.07028 40173 ft 514 kts 42°
2026-05-05 11:39 37.66961 -10.81443 40169 ft 516 kts 42°
2026-05-05 11:40 37.87183 -10.55709 40162 ft 516 kts 42°
2026-05-05 11:40 38.08786 -10.31938 40157 ft 513 kts 35°
2026-05-05 11:41 38.30955 -10.09073 40151 ft 513 kts 35°
2026-05-05 11:41 38.53089 -9.86033 40148 ft 513 kts 35°
2026-05-05 11:42 38.75169 -9.62860 40122 ft 512 kts 35°
2026-05-05 11:42 38.97140 -9.39610 40132 ft 512 kts 35°
2026-05-05 11:43 39.19082 -9.16197 40126 ft 511 kts 35°
2026-05-05 11:43 39.40911 -8.92710 40120 ft 510 kts 35°
2026-05-05 11:44 39.62680 -8.69087 40118 ft 510 kts 36°
2026-05-05 11:44 39.84385 -8.45332 40101 ft 509 kts 36°
2026-05-05 11:45 40.06012 -8.21464 40090 ft 509 kts 36°
2026-05-05 11:45 40.27585 -7.97446 40086 ft 509 kts 36°
2026-05-05 11:46 40.49118 -7.73262 40077 ft 509 kts 36°
2026-05-05 11:46 40.70595 -7.48930 40071 ft 509 kts 37°
2026-05-05 11:47 40.91979 -7.24489 40063 ft 508 kts 37°
2026-05-05 11:47 41.13294 -6.99907 40054 ft 508 kts 37°
2026-05-05 11:48 41.45186 -6.62715 40029 ft 508 kts 38°
2026-05-05 11:48 41.66404 -6.37687 40009 ft 508 kts 38°
2026-05-05 11:49 41.87533 -6.12536 40003 ft 508 kts 39°
2026-05-05 11:49 42.08597 -5.87230 40003 ft 508 kts 39°
2026-05-05 11:50 42.29652 -5.61699 39999 ft 508 kts 39°
2026-05-05 11:50 42.50624 -5.36029 39998 ft 508 kts 40°
2026-05-05 11:51 42.71419 -5.10333 39996 ft 508 kts 40°
2026-05-05 11:51 42.92296 -4.84289 39994 ft 509 kts 40°
2026-05-05 11:52 43.13129 -4.58051 39997 ft 509 kts 41°
2026-05-05 11:52 43.33880 -4.31659 40015 ft 509 kts 41°
2026-05-05 11:53 43.54612 -4.05032 40013 ft 510 kts 41°
2026-05-05 11:53 43.75353 -3.78129 40002 ft 511 kts 42°
2026-05-05 11:54 43.96020 -3.51057 39983 ft 510 kts 42°
2026-05-05 11:54 44.16579 -3.23850 39973 ft 509 kts 43°
2026-05-05 11:55 44.37084 -2.96439 39968 ft 510 kts 43°
2026-05-05 11:55 44.57502 -2.68864 39962 ft 509 kts 43°
2026-05-05 11:56 44.77822 -2.41138 39961 ft 509 kts 44°
2026-05-05 11:56 44.98104 -2.13175 39956 ft 509 kts 44°
2026-05-05 11:57 45.18286 -1.85058 39950 ft 508 kts 44°
2026-05-05 11:57 45.38356 -1.56802 39942 ft 508 kts 44°
2026-05-05 11:58 45.58330 -1.28382 39928 ft 508 kts 45°
2026-05-05 11:58 45.78311 -0.99646 39916 ft 510 kts 45°
2026-05-05 11:59 45.97019 -0.68983 39901 ft 511 kts 50°
2026-05-05 11:59 46.15430 -0.37763 39892 ft 511 kts 50°
2026-05-05 12:00 46.33748 -0.06350 39880 ft 511 kts 50°
2026-05-05 12:00 46.52012 0.25329 39883 ft 511 kts 51°
2026-05-05 12:01 46.70157 0.57165 39876 ft 511 kts 51°
2026-05-05 12:01 46.88211 0.89215 39866 ft 511 kts 51°
2026-05-05 12:02 47.03148 1.16016 39862 ft 511 kts 51°
2026-05-05 12:02 47.21049 1.48485 39854 ft 510 kts 52°
2026-05-05 12:03 47.38918 1.81283 39856 ft 509 kts 52°
2026-05-05 12:03 47.56356 2.13673 39814 ft 509 kts 52°
2026-05-05 12:04 47.73933 2.46717 39824 ft 510 kts 53°
2026-05-05 12:04 47.91426 2.80008 39818 ft 510 kts 53°
2026-05-05 12:05 48.08800 3.13478 39808 ft 509 kts 53°
2026-05-05 12:05 48.26027 3.47080 39814 ft 508 kts 53°
2026-05-05 12:06 48.43147 3.80891 39826 ft 507 kts 54°
2026-05-05 12:06 48.60204 4.15004 39831 ft 505 kts 54°
2026-05-05 12:07 48.77018 4.49059 39835 ft 505 kts 54°
2026-05-05 12:07 48.93791 4.83466 39836 ft 506 kts 55°
2026-05-05 12:08 49.10457 5.18098 39833 ft 506 kts 55°
2026-05-05 12:08 49.27107 5.53147 39850 ft 506 kts 55°
2026-05-05 12:09 49.43431 5.87961 39841 ft 505 kts 56°
2026-05-05 12:09 49.59649 6.23001 37810 ft 499 kts 57°
2026-05-05 12:10 49.66410 6.37743 34962 ft 509 kts 58°
2026-05-05 12:10 49.68454 6.42217 34139 ft 511 kts 59°
2026-05-05 12:10 49.70507 6.46723 33238 ft 514 kts 59°
2026-05-05 12:10 49.72383 6.51390 32441 ft 508 kts 68°
2026-05-05 12:11 49.73662 6.56441 31702 ft 501 kts 76°
2026-05-05 12:11 49.74693 6.61557 30969 ft 489 kts 77°
2026-05-05 12:11 49.75647 6.66475 30438 ft 464 kts 77°
2026-05-05 12:11 49.76545 6.71145 29859 ft 443 kts 77°
2026-05-05 12:12 49.77413 6.75698 28926 ft 430 kts 77°
2026-05-05 12:12 49.78245 6.80088 27906 ft 421 kts 77°
2026-05-05 12:12 49.79059 6.84401 26925 ft 413 kts 77°
2026-05-05 12:12 49.79856 6.88631 26000 ft 406 kts 77°
2026-05-05 12:13 49.80639 6.92799 25425 ft 403 kts 77°
2026-05-05 12:13 49.81407 6.96897 24938 ft 402 kts 77°
2026-05-05 12:13 49.82186 7.01065 24462 ft 407 kts 77°
2026-05-05 12:13 49.82974 7.05286 24125 ft 406 kts 77°
2026-05-05 12:14 49.83756 7.09477 23698 ft 404 kts 76°
2026-05-05 12:14 49.84524 7.13591 22905 ft 391 kts 76°
2026-05-05 12:14 49.85275 7.17628 22100 ft 390 kts 76°
2026-05-05 12:14 49.86023 7.21667 21552 ft 388 kts 76°
2026-05-05 12:15 49.86765 7.25675 21018 ft 385 kts 76°
2026-05-05 12:15 49.87499 7.29655 20477 ft 382 kts 76°
2026-05-05 12:15 49.88227 7.33606 19946 ft 379 kts 76°
2026-05-05 12:15 49.88947 7.37521 19414 ft 379 kts 76°
2026-05-05 12:16 49.89667 7.41450 19013 ft 377 kts 76°
2026-05-05 12:16 49.90392 7.45407 18509 ft 375 kts 76°
2026-05-05 12:16 49.91099 7.49283 18007 ft 373 kts 76°
2026-05-05 12:16 49.91804 7.53154 17470 ft 371 kts 76°
2026-05-05 12:17 49.92492 7.56928 16673 ft 358 kts 76°
2026-05-05 12:17 49.93165 7.60635 16023 ft 357 kts 76°
2026-05-05 12:17 49.93850 7.64422 15451 ft 355 kts 76°
2026-05-05 12:17 49.94499 7.68013 14772 ft 351 kts 76°
2026-05-05 12:18 49.95156 7.71653 13832 ft 347 kts 76°
2026-05-05 12:18 49.95799 7.75226 13175 ft 343 kts 76°
2026-05-05 12:18 49.96442 7.78811 12875 ft 345 kts 76°
2026-05-05 12:18 49.97080 7.82368 12833 ft 340 kts 76°
2026-05-05 12:19 49.97718 7.85916 12838 ft 339 kts 76°
2026-05-05 12:19 49.98342 7.89403 12833 ft 339 kts 76°
2026-05-05 12:19 49.98980 7.92985 12844 ft 339 kts 76°
2026-05-05 12:19 49.99702 7.96483 12841 ft 340 kts 71°
2026-05-05 12:20 50.00533 7.99925 12845 ft 340 kts 70°
2026-05-05 12:20 50.01380 8.03362 12845 ft 342 kts 70°
2026-05-05 12:20 50.02080 8.06215 12850 ft 342 kts 70°
2026-05-05 12:20 50.02928 8.09675 12847 ft 343 kts 71°
2026-05-05 12:21 50.03775 8.13143 12851 ft 343 kts 71°
2026-05-05 12:21 50.04620 8.16614 12855 ft 343 kts 71°
2026-05-05 12:21 50.05462 8.20079 12856 ft 343 kts 71°
2026-05-05 12:21 50.06303 8.23545 12850 ft 343 kts 71°
2026-05-05 12:22 50.07132 8.26969 12856 ft 343 kts 71°
2026-05-05 12:22 50.07969 8.30429 12743 ft 337 kts 71°
2026-05-05 12:22 50.08794 8.33844 12511 ft 331 kts 71°
2026-05-05 12:22 50.09587 8.37139 12191 ft 327 kts 71°
2026-05-05 12:23 50.10385 8.40438 11878 ft 325 kts 71°
2026-05-05 12:23 50.11178 8.43737 11546 ft 325 kts 71°
2026-05-05 12:23 50.11966 8.47029 11161 ft 323 kts 71°
2026-05-05 12:23 50.12747 8.50296 10781 ft 321 kts 71°
2026-05-05 12:24 50.13524 8.53551 10415 ft 319 kts 71°
2026-05-05 12:24 50.14294 8.56779 10051 ft 317 kts 71°
2026-05-05 12:24 50.15062 8.60002 9678 ft 315 kts 71°
2026-05-05 12:24 50.15832 8.63241 9280 ft 314 kts 71°
2026-05-05 12:25 50.16588 8.66424 8898 ft 312 kts 71°
2026-05-05 12:25 50.17337 8.69574 8493 ft 303 kts 71°
2026-05-05 12:25 50.18062 8.72625 8118 ft 298 kts 71°
2026-05-05 12:25 50.18776 8.75642 7741 ft 294 kts 71°
2026-05-05 12:26 50.19474 8.78587 7379 ft 292 kts 71°
2026-05-05 12:26 50.20176 8.81553 7003 ft 292 kts 71°
2026-05-05 12:26 50.20872 8.84519 6638 ft 289 kts 71°
2026-05-05 12:26 50.21559 8.87444 6274 ft 285 kts 71°
2026-05-05 12:27 50.22242 8.90334 5887 ft 282 kts 71°
2026-05-05 12:27 50.22914 8.93206 5506 ft 280 kts 71°
2026-05-05 12:27 50.23578 8.96053 5141 ft 277 kts 71°
2026-05-05 12:27 50.24130 8.98885 5002 ft 272 kts 83°
2026-05-05 12:28 50.23974 9.01788 4990 ft 269 kts 110°
2026-05-05 12:28 50.23006 9.04242 5000 ft 267 kts 136°
2026-05-05 12:28 50.21442 9.05730 4989 ft 262 kts 163°
2026-05-05 12:28 50.19741 9.05903 4977 ft 236 kts 192°
2026-05-05 12:29 50.18288 9.04801 5003 ft 234 kts 217°
2026-05-05 12:29 50.17100 9.03072 4998 ft 234 kts 228°
2026-05-05 12:29 50.16149 9.01028 4995 ft 234 kts 238°
2026-05-05 12:29 50.15418 8.98742 4999 ft 235 kts 246°
2026-05-05 12:30 50.14826 8.96362 4995 ft 235 kts 249°
2026-05-05 12:30 50.14263 8.93961 4998 ft 236 kts 248°
2026-05-05 12:30 50.13717 8.91640 4989 ft 227 kts 248°
2026-05-05 12:30 50.13172 8.89345 4995 ft 225 kts 248°
2026-05-05 12:31 50.12623 8.87060 4909 ft 225 kts 248°
2026-05-05 12:31 50.12071 8.84784 4658 ft 225 kts 248°
2026-05-05 12:31 50.11526 8.82489 4330 ft 226 kts 249°
2026-05-05 12:31 50.10978 8.80181 3986 ft 229 kts 249°
2026-05-05 12:32 50.10609 8.78636 3763 ft 230 kts 249°
2026-05-05 12:32 50.10045 8.76268 3436 ft 230 kts 249°
2026-05-05 12:32 50.09501 8.73985 3126 ft 218 kts 249°
2026-05-05 12:32 50.08995 8.71861 2856 ft 205 kts 249°
2026-05-05 12:33 50.08524 8.69884 2596 ft 184 kts 249°
2026-05-05 12:33 50.08095 8.68089 2366 ft 167 kts 249°
2026-05-05 12:33 50.07694 8.66408 2142 ft 165 kts 249°
2026-05-05 12:33 50.07297 8.64745 1914 ft 165 kts 249°
2026-05-05 12:34 50.06899 8.63075 1707 ft 162 kts 249°
2026-05-05 12:34 50.06522 8.61492 1475 ft 150 kts 249°
2026-05-05 12:34 50.06170 8.60019 1287 ft 140 kts 250°
2026-05-05 12:34 50.05842 8.58643 1104 ft 136 kts 250°
2026-05-05 12:35 50.05507 8.57241 927 ft 136 kts 250°
2026-05-05 12:35 50.05176 8.55855 738 ft 136 kts 250°
2026-05-05 12:35 50.04853 8.54502 561 ft 134 kts 249°
2026-05-05 12:35 50.04525 8.53143 383 ft 134 kts 249°
2026-05-05 12:36 50.04221 8.51866 359 ft 103 kts 249°
2026-05-05 12:36 50.04067 8.51237 362 ft 36 kts 246°
2026-05-05 12:36 50.03925 8.50945 357 ft 32 kts 221°
2026-05-05 12:36 50.03805 8.50854 361 ft 14 kts 152°
2026-05-05 12:37 50.03796 8.50970 360 ft 11 kts 73°
2026-05-05 12:37 50.03827 8.51097 358 ft 14 kts 65°
2026-05-05 12:37 50.03878 8.51323 357 ft 27 kts 71°
2026-05-05 12:37 50.03951 8.51625 356 ft 33 kts 69°
2026-05-05 12:38 50.04030 8.51960 358 ft 34 kts 70°
2026-05-05 12:38 50.04084 8.52185 352 ft 0 kts 69°